Aberdeen / Amory, MS

8:01 PM CDT on March 25, 2017 (GMT -0500)
Aberdeen / Amory

Weather History for KM40 - June, 2012

Change the Weather History Date:

Tuesday, June 26, 2012

  Actual Average (KCBM) Record (KCBM)
Temperature  
Mean Temperature 78 °F -  
Max Temperature 95 °F 87 °F 96 °F (1998)
Min Temperature 62 °F 68 °F 64 °F (2001)
Cooling Degree Days 14    
Growing Degree Days 28 (Base 50)    
Moisture  
Dew Point 64 °F    
Average Humidity 55    
Maximum Humidity 58    
Minimum Humidity 53    
Precipitation  
Precipitation 0.00 in - - ()
Sea Level Pressure  
Sea Level Pressure 29.80 in    
Wind  
Wind Speed 6 mph ()    
Max Wind Speed 16 mph    
Max Gust Speed 23 mph    
Visibility 9.7 miles    
Events      
Averages and records for this station are not official NWS values.
T = Trace of Precipitation, MM = Missing Value Source: Averaged Metar Reports

Daily Weather History Graph

Daily Weather History Graph

Search for Another Location

Airport or City:

Trip Planner

Search our weather history database for the weather conditions in past years. The results will help you decide how hot, cold, wet, or windy it might be!

Date:

Astronomy

Jun. 26, 2012 Rise Set
Actual Time 5:44 AM CDT 8:08 PM CDT
Civil Twilight 5:15 AM CDT 8:37 PM CDT
Nautical Twilight 4:40 AM CDT 9:13 PM CDT
Astronomical Twilight 4:00 AM CDT 9:52 PM CDT
Moon 12:39 PM CDT No Moon Set
Length of Visible Light 15h 22m
Length of Day
14h 23m
Waxing Crescent, 45% of the Moon is Illuminated
Jun 26
Waxing Crescent
Jun 26
First Quarter
Jul 3
Full
Jul 10
Last Quarter
Jul 18
New

Hourly Weather History & Observations

Time (CDT) Temp. Heat Index Dew Point Humidity Pressure Visibility Wind Dir Wind Speed Gust Speed Precip Events Conditions
12:15 AM 78.8 °F - 60.8 °F 54% 29.76 in 10.0 mi NNE 4.6 mph - N/A   Clear
12:35 AM 78.8 °F - 60.8 °F 54% 29.76 in 10.0 mi NNE 4.6 mph - N/A   Clear
12:55 AM 77.0 °F - 59.0 °F 54% 29.76 in 10.0 mi NNE 4.6 mph - N/A   Clear
1:15 AM 75.2 °F - 57.2 °F 53% 29.76 in 10.0 mi North 6.9 mph - N/A   Clear
1:35 AM 75.2 °F - 57.2 °F 53% 29.76 in 10.0 mi NNE 5.8 mph - N/A   Clear
1:55 AM 75.2 °F - 57.2 °F 53% 29.76 in 9.0 mi Calm Calm - N/A   Clear
2:15 AM 73.4 °F - 57.2 °F 57% 29.76 in 10.0 mi NNE 3.5 mph - N/A   Clear
2:35 AM 73.4 °F - 57.2 °F 57% 29.76 in 10.0 mi NNE 3.5 mph - N/A   Clear
3:15 AM 73.4 °F - 57.2 °F 57% 29.75 in 10.0 mi NE 4.6 mph - N/A   Clear
3:35 AM 73.4 °F - 55.4 °F 53% 29.75 in 10.0 mi North 3.5 mph - N/A   Clear
3:55 AM 71.6 °F - 55.4 °F 57% 29.76 in 10.0 mi North 5.8 mph - N/A   Clear
4:15 AM 71.6 °F - 55.4 °F 57% 29.76 in 9.0 mi Calm Calm - N/A   Clear
4:35 AM 71.6 °F - 53.6 °F 53% 29.77 in 9.0 mi Calm Calm - N/A   Clear
5:15 AM 71.6 °F - 55.4 °F 57% 29.77 in 10.0 mi NNE 4.6 mph - N/A   Clear
5:35 AM 71.6 °F - 55.4 °F 57% 29.78 in 10.0 mi NNE 4.6 mph - N/A   Clear
5:55 AM 71.6 °F - 53.6 °F 53% 29.79 in 9.0 mi NNE 5.8 mph - N/A   Clear
6:15 AM 71.6 °F - 55.4 °F 57% 29.80 in 8.0 mi NNE 6.9 mph - N/A   Clear
6:35 AM 71.6 °F - 55.4 °F 57% 29.81 in 8.0 mi NNE 4.6 mph - N/A   Clear
7:15 AM 75.2 °F - 57.2 °F 53% 29.81 in 9.0 mi NNE 6.9 mph - N/A   Clear
7:35 AM 75.2 °F - 59.0 °F 57% 29.82 in 8.0 mi NNE 8.1 mph - N/A   Clear
7:55 AM 78.8 °F - 60.8 °F 54% 29.82 in 9.0 mi NE 6.9 mph - N/A   Clear
8:15 AM 78.8 °F - 62.6 °F 57% 29.82 in 9.0 mi NNE 9.2 mph - N/A   Clear
8:35 AM 80.6 °F 81.8 °F 62.6 °F 54% 29.83 in 9.0 mi NNE 10.4 mph - N/A   Clear
8:55 AM 80.6 °F 82.3 °F 64.4 °F 58% 29.83 in 9.0 mi NE 9.2 mph - N/A   Clear
9:15 AM 82.4 °F 83.9 °F 64.4 °F 54% 29.83 in 10.0 mi NNE 9.2 mph - N/A   Clear
9:35 AM 84.2 °F 86.6 °F 66.2 °F 55% 29.83 in 9.0 mi NNE 9.2 mph - N/A   Clear
9:55 AM 84.2 °F 86.6 °F 66.2 °F 55% 29.83 in 10.0 mi North 8.1 mph - N/A   Clear
10:15 AM 86.0 °F 90.4 °F 69.8 °F 58% 29.83 in 10.0 mi NE 8.1 mph - N/A   Clear
10:35 AM 87.8 °F 92.6 °F 69.8 °F 55% 29.83 in 9.0 mi NNE 10.4 mph - N/A   Clear
10:55 AM 89.6 °F 96.2 °F 71.6 °F 55% 29.83 in 9.0 mi NE 8.1 mph - N/A   Clear
11:15 AM 89.6 °F 96.2 °F 71.6 °F 55% 29.83 in 10.0 mi NNE 6.9 mph - N/A   Clear
11:35 AM 89.6 °F 96.2 °F 71.6 °F 55% 29.83 in 10.0 mi NE 8.1 mph - N/A   Clear
11:55 AM 91.4 °F 100.1 °F 73.4 °F 55% 29.82 in 10.0 mi NNE 8.1 mph - N/A   Partly Cloudy
12:15 PM 91.4 °F 100.1 °F 73.4 °F 55% 29.82 in 10.0 mi NNE 6.9 mph - N/A   Partly Cloudy
12:35 PM 91.4 °F 100.1 °F 73.4 °F 55% 29.81 in 10.0 mi NNE 10.4 mph - N/A   Partly Cloudy
12:55 PM 93.2 °F 105.0 °F 75.2 °F 56% 29.81 in 10.0 mi North 9.2 mph - N/A   Clear
1:15 PM 93.2 °F 105.0 °F 75.2 °F 56% 29.81 in 10.0 mi North 10.4 mph - N/A   Clear
1:35 PM 93.2 °F 105.0 °F 75.2 °F 56% 29.80 in 10.0 mi North 11.5 mph - N/A   Clear
1:55 PM 93.2 °F 105.0 °F 75.2 °F 56% 29.80 in 10.0 mi NE 9.2 mph 16.1 mph N/A   Clear
2:15 PM 93.2 °F 105.0 °F 75.2 °F 56% 29.80 in 10.0 mi North 11.5 mph 17.3 mph N/A   Clear
2:35 PM 93.2 °F 105.0 °F 75.2 °F 56% 29.79 in 10.0 mi North 6.9 mph 17.3 mph N/A   Clear
2:55 PM 93.2 °F 105.0 °F 75.2 °F 56% 29.79 in 10.0 mi NNE 13.8 mph - N/A   Clear
3:15 PM 95.0 °F 109.7 °F 77.0 °F 56% 29.79 in 10.0 mi NNE 16.1 mph 19.6 mph N/A   Clear
3:35 PM 95.0 °F 109.7 °F 77.0 °F 56% 29.79 in 10.0 mi NNW 10.4 mph - N/A   Clear
3:55 PM 95.0 °F 109.7 °F 77.0 °F 56% 29.79 in 10.0 mi NNE 13.8 mph 18.4 mph N/A   Clear
4:15 PM 95.0 °F 109.7 °F 77.0 °F 56% 29.79 in 10.0 mi North 15.0 mph - N/A   Clear
4:35 PM 95.0 °F 109.7 °F 77.0 °F 56% 29.79 in 10.0 mi NNE 15.0 mph 23.0 mph N/A   Clear
5:15 PM 95.0 °F 109.7 °F 77.0 °F 56% 29.79 in 9.0 mi NNE 10.4 mph 19.6 mph N/A   Clear
5:35 PM 95.0 °F 109.7 °F 77.0 °F 56% 29.78 in 9.0 mi North 12.7 mph - N/A   Clear
6:15 PM 93.2 °F 105.0 °F 75.2 °F 56% 29.78 in 10.0 mi NNE 12.7 mph - N/A   Clear
6:35 PM 91.4 °F 100.1 °F 73.4 °F 55% 29.78 in 10.0 mi North 8.1 mph - N/A   Clear
6:55 PM 91.4 °F 100.1 °F 73.4 °F 55% 29.79 in 10.0 mi North 10.4 mph - N/A   Clear
7:15 PM 89.6 °F 96.2 °F 71.6 °F 55% 29.79 in 10.0 mi NNW 6.9 mph - N/A   Clear
7:35 PM 87.8 °F 92.6 °F 69.8 °F 55% 29.80 in 10.0 mi NNW 6.9 mph - N/A   Clear
7:55 PM 84.2 °F 86.6 °F 66.2 °F 55% 29.80 in 10.0 mi North 5.8 mph - N/A   Clear
8:15 PM 82.4 °F 83.9 °F 64.4 °F 54% 29.80 in 10.0 mi Calm Calm - N/A   Clear
8:35 PM 78.8 °F - 60.8 °F 54% 29.80 in 10.0 mi Calm Calm - N/A   Clear
8:55 PM 73.4 °F - 57.2 °F 57% 29.81 in 10.0 mi Calm Calm - N/A   Clear
9:15 PM 71.6 °F - 55.4 °F 57% 29.82 in 10.0 mi NNE 4.6 mph - N/A   Clear
9:35 PM 73.4 °F - 55.4 °F 53% 29.82 in 10.0 mi NNE 4.6 mph - N/A   Clear
9:55 PM 71.6 °F - 53.6 °F 53% 29.83 in 10.0 mi North 3.5 mph - N/A   Clear
10:15 PM 68.0 °F - 51.8 °F 56% 29.84 in 10.0 mi Calm Calm - N/A   Clear
10:35 PM 66.2 °F - 50.0 °F 56% 29.85 in 10.0 mi Calm Calm - N/A   Clear
10:55 PM 64.4 °F - 48.2 °F 56% 29.86 in 10.0 mi Calm Calm - N/A   Clear
11:15 PM 64.4 °F - 48.2 °F 56% 29.86 in 10.0 mi Calm Calm - N/A   Clear
11:35 PM 62.6 °F - 46.4 °F 55% 29.87 in 10.0 mi Calm Calm - N/A   Clear
11:55 PM 62.6 °F - 46.4 °F 55% 29.87 in 10.0 mi Calm Calm - N/A   Clear